Weather History for Lancaster, CA

Change the Weather History Date:

Friday, June 14, 2013

  Actual Average Record
Temperature  
Mean Temperature 78 °F 76 °F  
Max Temperature 95 °F 90 °F 108 °F (1961)
Min Temperature 60 °F 61 °F 45 °F (1970)
Degree Days  
Heating Degree Days 0    
Month to date heating degree days 0  
Since 1 June heating degree days 0  
Since 1 July heating degree days 2717  
Cooling Degree Days 13    
Month to date cooling degree days 208  
Year to date cooling degree days 466  
Since 1 June cooling degree days 208  
Growing Degree Days 26 (Base 50)    
Moisture  
Dew Point 32 °F    
Average Humidity 27    
Maximum Humidity 47    
Minimum Humidity 7    
Precipitation  
Precipitation 0.00 in 0.00 in 0.00 in (2014)
Month to date precipitation 0.00 0.03  
Year to date precipitation 1.10 4.89  
Since 1 July precipitation 1.26 7.36  
Snow  
Snow 0.00 in - 0.00 in ()
Month to date snowfall 0.0  
Since 1 June snowfall 0.0  
Since 1 July snowfall 0.0  
Snow Depth 0.00 in    
Sea Level Pressure  
Sea Level Pressure 29.84 in    
Wind  
Wind Speed 11 mph (WSW)    
Max Wind Speed 25 mph    
Max Gust Speed 29 mph    
Visibility 10 miles    
Events      
T = Trace of Precipitation, MM = Missing Value Source: NWS Daily Summary

Daily Weather History Graph

Daily Weather History Graph

Search for Another Location

Airport:

Trip Planner

Search our weather history database for the weather conditions in past years. The results will help you decide how hot, cold, wet, or windy it might be!

Date:

Astronomy

Jun. 14, 2013 Rise Set
Actual Time 5:39 AM PDT 8:07 PM PDT
Civil Twilight 5:09 AM PDT 8:37 PM PDT
Nautical Twilight 4:33 AM PDT 9:13 PM PDT
Astronomical Twilight 3:52 AM PDT 9:53 PM PDT
Moon 11:07 AM PDT (6/14) 11:59 PM PDT (6/14)
Length of Visible Light 15h 27m
Length of Day
14h 28m
Waxing Crescent, 31% of the Moon is Illuminated
Jun 14
Waxing Crescent
Jun 16
First Quarter
Jun 23
Full
Jun 29
Last Quarter
Jul 8
New

Hourly Weather History & Observations

Time (PDT) Temp. Dew Point Humidity Pressure Visibility Wind Dir Wind Speed Gust Speed Precip Events Conditions
12:56 AM 70.0 °F 27.0 °F 20% 29.87 in 10.0 mi West 21.9 mph - N/A   Clear
1:56 AM 68.0 °F 28.0 °F 22% 29.86 in 10.0 mi West 19.6 mph - N/A   Clear
2:56 AM 66.0 °F 32.0 °F 28% 29.86 in 10.0 mi West 18.4 mph - N/A   Clear
3:56 AM 64.9 °F 33.1 °F 31% 29.87 in 10.0 mi WNW 12.7 mph - N/A   Clear
4:56 AM 63.0 °F 32.0 °F 31% 29.88 in 10.0 mi WNW 10.4 mph - N/A   Clear
5:56 AM 60.1 °F 30.0 °F 32% 29.89 in 10.0 mi West 6.9 mph - N/A   Clear
6:56 AM 64.0 °F 28.0 °F 26% 29.90 in 10.0 mi Calm Calm - N/A   Clear
7:56 AM 72.0 °F 28.9 °F 20% 29.91 in 10.0 mi WSW 5.8 mph - N/A   Clear
8:56 AM 77.0 °F 28.0 °F 17% 29.90 in 10.0 mi Calm Calm - N/A   Clear
9:56 AM 80.1 °F 26.1 °F 14% 29.89 in 10.0 mi Calm Calm - N/A   Clear
10:56 AM 84.0 °F 21.9 °F 10% 29.87 in 10.0 mi Calm Calm - N/A   Clear
11:56 AM 86.0 °F 17.1 °F 8% 29.86 in 10.0 mi South 4.6 mph - N/A   Clear
12:56 PM 88.0 °F 19.9 °F 8% 29.83 in 10.0 mi Calm Calm - N/A   Clear
1:56 PM 93.0 °F 21.9 °F 8% 29.80 in 10.0 mi Variable 3.5 mph - N/A   Clear
2:56 PM 93.0 °F 33.1 °F 12% 29.79 in 10.0 mi WSW 16.1 mph 23.0 mph N/A   Clear
3:56 PM 91.0 °F 34.0 °F 13% 29.78 in 10.0 mi WSW 23.0 mph 27.6 mph N/A   Clear
4:56 PM 90.0 °F 28.9 °F 11% 29.78 in 10.0 mi SW 19.6 mph 25.3 mph N/A   Clear
5:56 PM 87.1 °F 30.9 °F 13% 29.78 in 10.0 mi West 23.0 mph - N/A   Clear
6:56 PM 81.0 °F 43.0 °F 26% 29.80 in 10.0 mi West 18.4 mph - N/A   Clear
7:56 PM 77.0 °F 42.1 °F 29% 29.81 in 10.0 mi West 18.4 mph - N/A   Clear
8:56 PM 72.0 °F 48.0 °F 43% 29.83 in 10.0 mi West 10.4 mph - N/A   Clear
9:56 PM 69.1 °F 48.9 °F 49% 29.84 in 10.0 mi WSW 11.5 mph - N/A   Clear
10:56 PM 70.0 °F 42.1 °F 36% 29.83 in 10.0 mi SW 9.2 mph - N/A   Clear
11:56 PM 68.0 °F 45.0 °F 43% 29.83 in 10.0 mi SW 11.5 mph - N/A   Clear